Private Wetterstation Wechselburg
Wetterdaten: Sonntag, 12.06.2016
Datum Zeit Temp. +2m Bodentemp. Temp.+5cm Temp. Wind Windchill X Diff Temp. Feuchte +2m Feuchte +5cm Sonnenschein Luftdruck Regen Wind Richtung Richtung Sonnenschein Taupunkt Windchill Windben
12.06.2016 00:02 13,5 C 23,1 C 14,1 C 13,3 C 12,9 C 0,0 C 80 % 84 % 0 % 1010,9 hPa 0,0 l/m 0,0 km/h (0 Bft) O-NO 67 0 min 10,1 C 12,9 C 0,0 km/h (0 Bft)
12.06.2016 00:07 13,2 C 23,0 C 14,1 C 13,0 C 12,7 C 0,0 C 80 % 84 % 0 % 1010,9 hPa 0,0 l/m 0,0 km/h (0 Bft) O-NO 67 0 min 9,8 C 12,7 C 0,0 km/h (0 Bft)
12.06.2016 00:12 13,1 C 23,1 C 14,0 C 12,9 C 12,6 C 0,0 C 80 % 84 % 0 % 1010,9 hPa 0,0 l/m 0,0 km/h (0 Bft) N-NW 337 0 min 9,7 C 12,6 C 0,0 km/h (0 Bft)
12.06.2016 00:17 12,9 C 23,1 C 13,9 C 12,8 C 12,5 C 0,0 C 81 % 85 % 0 % 1010,9 hPa 0,0 l/m 0,0 km/h (0 Bft) O-NO 67 0 min 9,7 C 12,5 C 0,0 km/h (0 Bft)
12.06.2016 00:22 12,8 C 23,1 C 13,9 C 12,7 C 12,4 C 0,0 C 81 % 85 % 0 % 1010,6 hPa 0,0 l/m 0,0 km/h (0 Bft) O-NO 67 0 min 9,6 C 12,4 C 0,0 km/h (0 Bft)
12.06.2016 00:27 12,7 C 23,1 C 13,7 C 12,6 C 12,3 C 0,0 C 81 % 85 % 0 % 1010,6 hPa 0,0 l/m 0,0 km/h (0 Bft) O-NO 67 0 min 9,5 C 12,3 C 0,0 km/h (0 Bft)
12.06.2016 00:32 12,4 C 23,1 C 13,7 C 12,4 C 12,3 C 0,0 C 81 % 86 % 0 % 1010,6 hPa 0,0 l/m 0,0 km/h (0 Bft) O-NO 67 0 min 9,2 C 12,3 C 0,0 km/h (0 Bft)
12.06.2016 00:37 12,4 C 23,1 C 13,5 C 12,3 C 12,2 C 0,0 C 81 % 86 % 0 % 1010,6 hPa 0,0 l/m 0,0 km/h (0 Bft) O-NO 67 0 min 9,2 C 12,2 C 0,0 km/h (0 Bft)
12.06.2016 00:42 12,3 C 23,1 C 13,4 C 12,2 C 12,0 C 0,0 C 81 % 86 % 0 % 1010,8 hPa 0,0 l/m 0,0 km/h (0 Bft) O-NO 67 0 min 9,1 C 12,0 C 0,0 km/h (0 Bft)
12.06.2016 00:47 12,1 C 23,1 C 13,5 C 12,0 C 11,9 C 0,0 C 82 % 86 % 0 % 1010,8 hPa 0,0 l/m 0,0 km/h (0 Bft) O-NO 67 0 min 9,1 C 11,9 C 0,0 km/h (0 Bft)
12.06.2016 00:52 12,0 C 23,1 C 13,3 C 11,9 C 11,7 C 0,0 C 82 % 85 % 0 % 1010,8 hPa 0,0 l/m 0,0 km/h (0 Bft) O-NO 67 0 min 9,0 C 11,7 C 0,0 km/h (0 Bft)
12.06.2016 00:57 11,9 C 23,1 C 13,3 C 11,8 C 11,7 C 0,0 C 82 % 86 % 0 % 1010,8 hPa 0,0 l/m 0,0 km/h (0 Bft) O-NO 67 0 min 8,9 C 11,7 C 0,0 km/h (0 Bft)
12.06.2016 01:02 11,9 C 23,1 C 13,2 C 11,8 C 11,7 C 0,0 C 82 % 86 % 0 % 1010,7 hPa 0,0 l/m 0,0 km/h (0 Bft) O-NO 67 0 min 8,9 C 11,7 C 0,0 km/h (0 Bft)
12.06.2016 01:07 11,7 C 23,1 C 13,3 C 11,7 C 11,6 C 0,0 C 82 % 86 % 0 % 1010,7 hPa 0,0 l/m 0,0 km/h (0 Bft) O-NO 67 0 min 8,7 C 11,6 C 0,0 km/h (0 Bft)
12.06.2016 01:12 11,6 C 23,1 C 13,1 C 11,6 C 11,6 C 0,0 C 83 % 86 % 0 % 1010,7 hPa 0,0 l/m 0,0 km/h (0 Bft) O-NO 67 0 min 8,8 C 11,6 C 0,0 km/h (0 Bft)
12.06.2016 01:17 11,6 C 23,1 C 13,0 C 11,6 C 11,6 C 0,0 C 83 % 87 % 0 % 1010,7 hPa 0,0 l/m 0,0 km/h (0 Bft) O-NO 67 0 min 8,8 C 11,6 C 0,0 km/h (0 Bft)
12.06.2016 01:22 11,5 C 23,1 C 13,1 C 11,5 C 11,5 C 0,0 C 83 % 87 % 0 % 1010,7 hPa 0,0 l/m 0,0 km/h (0 Bft) O-NO 67 0 min 8,7 C 11,5 C 0,0 km/h (0 Bft)
12.06.2016 01:27 11,5 C 23,1 C 13,0 C 11,5 C 11,4 C 0,0 C 83 % 87 % 0 % 1010,7 hPa 0,0 l/m 0,0 km/h (0 Bft) O-NO 67 0 min 8,7 C 11,4 C 0,0 km/h (0 Bft)
12.06.2016 01:32 11,3 C 23,0 C 12,8 C 11,3 C 11,2 C 0,0 C 83 % 87 % 0 % 1010,7 hPa 0,0 l/m 0,0 km/h (0 Bft) N-NW 337 0 min 8,5 C 11,2 C 0,0 km/h (0 Bft)
12.06.2016 01:37 11,2 C 23,0 C 12,8 C 11,2 C 11,2 C 0,0 C 83 % 87 % 0 % 1010,7 hPa 0,0 l/m 0,0 km/h (0 Bft) N-NW 337 0 min 8,4 C 11,2 C 0,0 km/h (0 Bft)
12.06.2016 01:42 11,2 C 23,1 C 12,7 C 11,2 C 11,1 C 0,0 C 83 % 87 % 0 % 1010,5 hPa 0,0 l/m 0,0 km/h (0 Bft) N-NW 337 0 min 8,4 C 11,1 C 0,0 km/h (0 Bft)
12.06.2016 01:47 11,1 C 23,1 C 12,6 C 11,1 C 11,0 C 0,0 C 83 % 87 % 0 % 1010,5 hPa 0,0 l/m 0,0 km/h (0 Bft) NO 45 0 min 8,3 C 11,0 C 0,0 km/h (0 Bft)
12.06.2016 01:52 11,0 C 23,1 C 12,5 C 11,0 C 10,9 C 0,0 C 83 % 87 % 0 % 1010,5 hPa 0,0 l/m 0,0 km/h (0 Bft) NO 45 0 min 8,2 C 10,9 C 0,0 km/h (0 Bft)
12.06.2016 01:57 10,9 C 23,1 C 12,5 C 10,9 C 10,9 C 0,0 C 83 % 88 % 0 % 1010,5 hPa 0,0 l/m 0,0 km/h (0 Bft) NO 45 0 min 8,1 C 10,9 C 0,0 km/h (0 Bft)
12.06.2016 02:02 10,9 C 23,1 C 12,4 C 10,9 C 10,8 C 0,0 C 84 % 88 % 0 % 1010,4 hPa 0,0 l/m 0,0 km/h (0 Bft) NO 45 0 min 8,3 C 10,8 C 0,0 km/h (0 Bft)
12.06.2016 02:07 10,8 C 23,1 C 12,4 C 10,8 C 10,7 C 0,0 C 84 % 88 % 0 % 1010,4 hPa 0,0 l/m 0,0 km/h (0 Bft) NO 45 0 min 8,2 C 10,7 C 0,0 km/h (0 Bft)
12.06.2016 02:12 10,6 C 23,1 C 12,3 C 10,6 C 10,6 C 0,0 C 84 % 87 % 0 % 1010,4 hPa 0,0 l/m 0,0 km/h (0 Bft) NO 45 0 min 8,0 C 10,6 C 0,0 km/h (0 Bft)
12.06.2016 02:17 10,7 C 23,1 C 12,2 C 10,7 C 10,6 C 0,0 C 84 % 87 % 0 % 1010,4 hPa 0,0 l/m 0,0 km/h (0 Bft) O-NO 67 0 min 8,1 C 10,6 C 0,0 km/h (0 Bft)
12.06.2016 02:22 10,5 C 23,1 C 12,1 C 10,6 C 10,6 C 0,1 C 85 % 87 % 0 % 1010,4 hPa 0,0 l/m 0,0 km/h (0 Bft) NO 45 0 min 8,1 C 10,6 C 0,0 km/h (0 Bft)
12.06.2016 02:27 10,4 C 23,2 C 12,1 C 10,5 C 10,5 C 0,1 C 85 % 87 % 0 % 1010,4 hPa 0,0 l/m 0,0 km/h (0 Bft) NW 315 0 min 8,0 C 10,5 C 0,0 km/h (0 Bft)
12.06.2016 02:32 10,3 C 23,0 C 12,0 C 10,3 C 10,3 C 0,0 C 85 % 88 % 0 % 1010,4 hPa 0,0 l/m 0,0 km/h (0 Bft) NW 315 0 min 7,9 C 10,3 C 0,0 km/h (0 Bft)
12.06.2016 02:37 10,3 C 23,0 C 12,0 C 10,3 C 10,2 C 0,0 C 85 % 87 % 0 % 1010,4 hPa 0,0 l/m 0,0 km/h (0 Bft) NW 315 0 min 7,9 C 10,2 C 0,0 km/h (0 Bft)
12.06.2016 02:42 10,1 C 23,0 C 11,9 C 10,1 C 10,1 C 0,0 C 85 % 88 % 0 % 1010,4 hPa 0,0 l/m 0,0 km/h (0 Bft) NW 315 0 min 7,7 C 10,1 C 0,0 km/h (0 Bft)
12.06.2016 02:47 10,1 C 23,0 C 11,9 C 10,1 C 10,1 C 0,0 C 85 % 88 % 0 % 1010,4 hPa 0,0 l/m 0,0 km/h (0 Bft) NW 315 0 min 7,7 C 10,1 C 0,0 km/h (0 Bft)
12.06.2016 02:52 10,0 C 23,0 C 11,9 C 10,0 C 10,0 C 0,0 C 85 % 88 % 0 % 1010,4 hPa 0,0 l/m 0,0 km/h (0 Bft) N-NW 337 0 min 7,6 C 10,0 C 0,0 km/h (0 Bft)
12.06.2016 02:57 9,9 C 23,0 C 11,7 C 10,0 C 10,0 C 0,1 C 85 % 88 % 0 % 1010,4 hPa 0,0 l/m 0,0 km/h (0 Bft) N-NW 337 0 min 7,5 C 10,0 C 0,0 km/h (0 Bft)
12.06.2016 03:02 10,0 C 23,0 C 11,7 C 10,0 C 10,0 C 0,0 C 85 % 88 % 0 % 1010,2 hPa 0,0 l/m 0,0 km/h (0 Bft) O-NO 67 0 min 7,6 C 10,0 C 0,0 km/h (0 Bft)
12.06.2016 03:07 9,9 C 23,0 C 11,6 C 10,0 C 10,0 C 0,1 C 85 % 88 % 0 % 1010,2 hPa 0,0 l/m 0,0 km/h (0 Bft) O-NO 67 0 min 7,5 C 10,0 C 0,0 km/h (0 Bft)
12.06.2016 03:12 9,9 C 23,0 C 11,6 C 10,0 C 10,0 C 0,1 C 85 % 88 % 0 % 1010,2 hPa 0,0 l/m 0,0 km/h (0 Bft) O-NO 67 0 min 7,5 C 10,0 C 0,0 km/h (0 Bft)
12.06.2016 03:17 9,9 C 23,0 C 11,6 C 10,0 C 10,0 C 0,1 C 86 % 88 % 0 % 1010,2 hPa 0,0 l/m 0,0 km/h (0 Bft) O-NO 67 0 min 7,7 C 10,0 C 0,0 km/h (0 Bft)
12.06.2016 03:22 9,7 C 23,0 C 11,5 C 9,9 C 9,9 C 0,2 C 86 % 88 % 0 % 1010,2 hPa 0,0 l/m 0,0 km/h (0 Bft) O-NO 67 0 min 7,5 C 9,9 C 0,0 km/h (0 Bft)
12.06.2016 03:27 9,6 C 22,9 C 11,5 C 9,8 C 9,8 C 0,2 C 86 % 88 % 0 % 1010,2 hPa 0,0 l/m 0,0 km/h (0 Bft) O-NO 67 0 min 7,4 C 9,8 C 0,0 km/h (0 Bft)
12.06.2016 03:32 9,6 C 22,9 C 11,4 C 9,6 C 9,6 C 0,0 C 86 % 88 % 0 % 1010,2 hPa 0,0 l/m 0,0 km/h (0 Bft) O-NO 67 0 min 7,4 C 9,6 C 0,0 km/h (0 Bft)
12.06.2016 03:37 9,5 C 22,9 C 11,3 C 9,6 C 9,6 C 0,1 C 86 % 88 % 0 % 1010,2 hPa 0,0 l/m 0,0 km/h (0 Bft) O-NO 67 0 min 7,3 C 9,6 C 0,0 km/h (0 Bft)
12.06.2016 03:42 9,5 C 22,9 C 11,3 C 9,5 C 9,4 C 0,0 C 86 % 88 % 0 % 1010,3 hPa 0,0 l/m 0,0 km/h (0 Bft) O-NO 67 0 min 7,3 C 9,4 C 0,0 km/h (0 Bft)
12.06.2016 03:47 9,3 C 22,9 C 11,2 C 9,4 C 9,4 C 0,1 C 86 % 88 % 0 % 1010,3 hPa 0,0 l/m 0,0 km/h (0 Bft) NW 315 0 min 7,1 C 9,4 C 0,0 km/h (0 Bft)
12.06.2016 03:52 9,3 C 22,9 C 11,1 C 9,3 C 9,3 C 0,0 C 86 % 88 % 0 % 1010,3 hPa 0,0 l/m 0,0 km/h (0 Bft) W-SW 247 0 min 7,1 C 9,3 C 0,0 km/h (0 Bft)
12.06.2016 03:57 9,3 C 22,9 C 11,1 C 9,3 C 9,3 C 0,0 C 86 % 89 % 0 % 1010,3 hPa 0,0 l/m 0,0 km/h (0 Bft) N-NW 337 0 min 7,1 C 9,3 C 0,0 km/h (0 Bft)
12.06.2016 04:02 9,1 C 22,9 C 11,1 C 9,3 C 9,3 C 0,2 C 86 % 89 % 0 % 1010,0 hPa 0,0 l/m 0,0 km/h (0 Bft) N-NW 337 0 min 6,9 C 9,3 C 0,0 km/h (0 Bft)
12.06.2016 04:07 9,1 C 22,9 C 10,9 C 9,2 C 9,2 C 0,1 C 86 % 89 % 0 % 1010,0 hPa 0,0 l/m 0,0 km/h (0 Bft) N-NW 337 0 min 6,9 C 9,2 C 0,0 km/h (0 Bft)
12.06.2016 04:12 8,9 C 22,9 C 10,9 C 9,1 C 9,1 C 0,2 C 86 % 89 % 0 % 1010,0 hPa 0,0 l/m 0,0 km/h (0 Bft) N-NW 337 0 min 6,7 C 9,1 C 0,0 km/h (0 Bft)
12.06.2016 04:17 8,9 C 22,9 C 10,8 C 9,0 C 9,0 C 0,1 C 86 % 89 % 0 % 1010,0 hPa 0,0 l/m 0,0 km/h (0 Bft) N-NW 337 0 min 6,7 C 9,0 C 0,0 km/h (0 Bft)
12.06.2016 04:22 8,9 C 22,9 C 10,8 C 9,0 C 9,0 C 0,1 C 86 % 89 % 0 % 1010,0 hPa 0,0 l/m 0,0 km/h (0 Bft) N-NW 337 0 min 6,7 C 9,0 C 0,0 km/h (0 Bft)
12.06.2016 04:27 8,8 C 22,9 C 10,8 C 9,1 C 9,1 C 0,3 C 86 % 89 % 0 % 1010,0 hPa 0,0 l/m 0,0 km/h (0 Bft) N-NW 337 0 min 6,6 C 9,1 C 0,0 km/h (0 Bft)
12.06.2016 04:32 8,8 C 22,9 C 10,7 C 9,0 C 9,0 C 0,2 C 87 % 89 % 0 % 1010,0 hPa 0,0 l/m 0,0 km/h (0 Bft) O-NO 67 0 min 6,8 C 9,0 C 0,0 km/h (0 Bft)
12.06.2016 04:37 8,8 C 22,9 C 10,7 C 9,1 C 9,1 C 0,3 C 87 % 89 % 0 % 1010,0 hPa 0,0 l/m 0,0 km/h (0 Bft) O-NO 67 0 min 6,8 C 9,1 C 0,0 km/h (0 Bft)
12.06.2016 04:42 8,8 C 22,9 C 10,7 C 9,1 C 9,1 C 0,3 C 87 % 89 % 0 % 1009,9 hPa 0,0 l/m 0,0 km/h (0 Bft) O-NO 67 0 min 6,8 C 9,1 C 0,0 km/h (0 Bft)
12.06.2016 04:47 8,8 C 22,9 C 10,7 C 9,1 C 9,1 C 0,3 C 87 % 89 % 0 % 1009,9 hPa 0,0 l/m 0,0 km/h (0 Bft) O-NO 67 0 min 6,8 C 9,1 C 0,0 km/h (0 Bft)
12.06.2016 04:52 8,8 C 22,9 C 10,7 C 9,1 C 9,1 C 0,3 C 87 % 89 % 0 % 1009,9 hPa 0,0 l/m 0,0 km/h (0 Bft) W 270 0 min 6,8 C 9,1 C 0,0 km/h (0 Bft)
12.06.2016 04:57 8,7 C 22,8 C 10,6 C 9,1 C 9,1 C 0,4 C 87 % 89 % 0 % 1009,9 hPa 0,0 l/m 0,0 km/h (0 Bft) W 270 0 min 6,7 C 9,1 C 0,0 km/h (0 Bft)
12.06.2016 05:02 8,8 C 22,8 C 10,7 C 9,1 C 9,1 C 0,3 C 87 % 89 % 0 % 1010,1 hPa 0,0 l/m 0,0 km/h (0 Bft) W 270 0 min 6,8 C 9,1 C 0,0 km/h (0 Bft)
12.06.2016 05:07 8,7 C 22,8 C 10,7 C 9,1 C 9,1 C 0,4 C 87 % 89 % 0 % 1010,1 hPa 0,0 l/m 0,0 km/h (0 Bft) W 270 0 min 6,7 C 9,1 C 0,0 km/h (0 Bft)
12.06.2016 05:12 8,7 C 22,8 C 10,7 C 9,2 C 9,2 C 0,5 C 87 % 89 % 13 % 1010,1 hPa 0,0 l/m 0,0 km/h (0 Bft) W 270 5 min 6,7 C 9,2 C 0,0 km/h (0 Bft)
12.06.2016 05:17 8,7 C 22,8 C 10,7 C 9,3 C 9,3 C 0,6 C 87 % 89 % 16 % 1010,1 hPa 0,0 l/m 0,0 km/h (0 Bft) W 270 5 min 6,7 C 9,3 C 0,0 km/h (0 Bft)
12.06.2016 05:22 8,8 C 22,9 C 10,8 C 9,3 C 9,3 C 0,5 C 88 % 89 % 13 % 1009,9 hPa 0,0 l/m 0,0 km/h (0 Bft) W 270 5 min 6,9 C 9,3 C 0,0 km/h (0 Bft)
12.06.2016 05:27 8,8 C 22,9 C 10,8 C 9,4 C 9,4 C 0,6 C 88 % 89 % 16 % 1009,9 hPa 0,0 l/m 0,0 km/h (0 Bft) W 270 5 min 6,9 C 9,4 C 0,0 km/h (0 Bft)
12.06.2016 05:32 8,9 C 22,8 C 10,7 C 9,5 C 9,5 C 0,6 C 88 % 89 % 16 % 1009,9 hPa 0,0 l/m 0,0 km/h (0 Bft) W 270 0 min 7,0 C 9,5 C 0,0 km/h (0 Bft)
12.06.2016 05:37 8,9 C 22,8 C 10,7 C 9,5 C 9,5 C 0,6 C 88 % 89 % 16 % 1009,9 hPa 0,0 l/m 0,0 km/h (0 Bft) W 270 0 min 7,0 C 9,5 C 0,0 km/h (0 Bft)
12.06.2016 05:42 8,9 C 22,8 C 10,8 C 9,6 C 9,6 C 0,7 C 88 % 89 % 18 % 1009,9 hPa 0,0 l/m 0,0 km/h (0 Bft) W 270 0 min 7,0 C 9,6 C 0,0 km/h (0 Bft)
12.06.2016 05:47 9,0 C 22,8 C 10,8 C 9,6 C 9,6 C 0,6 C 88 % 89 % 16 % 1009,9 hPa 0,0 l/m 0,0 km/h (0 Bft) W 270 0 min 7,1 C 9,6 C 0,0 km/h (0 Bft)
12.06.2016 05:52 9,1 C 22,8 C 10,8 C 9,8 C 9,8 C 0,7 C 88 % 89 % 18 % 1009,9 hPa 0,0 l/m 0,0 km/h (0 Bft) W-SW 247 0 min 7,2 C 9,8 C 0,0 km/h (0 Bft)
12.06.2016 05:57 9,1 C 22,7 C 10,9 C 9,9 C 9,9 C 0,8 C 88 % 89 % 21 % 1009,9 hPa 0,0 l/m 0,0 km/h (0 Bft) W-SW 247 0 min 7,2 C 9,9 C 0,0 km/h (0 Bft)
12.06.2016 06:02 9,2 C 22,7 C 10,9 C 10,0 C 10,0 C 0,8 C 89 % 89 % 21 % 1010,1 hPa 0,0 l/m 0,0 km/h (0 Bft) W-SW 247 0 min 7,5 C 10,0 C 0,0 km/h (0 Bft)
12.06.2016 06:07 9,3 C 22,7 C 11,0 C 10,2 C 10,2 C 0,9 C 89 % 89 % 24 % 1010,1 hPa 0,0 l/m 0,0 km/h (0 Bft) W-SW 247 0 min 7,6 C 10,2 C 0,0 km/h (0 Bft)
12.06.2016 06:12 9,5 C 22,7 C 11,1 C 10,6 C 10,6 C 1,1 C 89 % 89 % 29 % 1010,1 hPa 0,0 l/m 0,0 km/h (0 Bft) W-SW 247 0 min 7,8 C 10,6 C 0,0 km/h (0 Bft)
12.06.2016 06:17 9,5 C 22,7 C 11,2 C 10,9 C 10,9 C 1,4 C 89 % 89 % 37 % 1010,1 hPa 0,0 l/m 0,0 km/h (0 Bft) W-SW 247 0 min 7,8 C 10,9 C 0,0 km/h (0 Bft)
12.06.2016 06:22 9,6 C 22,7 C 11,3 C 11,1 C 11,1 C 1,5 C 90 % 89 % 39 % 1010,1 hPa 0,0 l/m 0,0 km/h (0 Bft) W-SW 247 0 min 8,0 C 11,1 C 0,0 km/h (0 Bft)
12.06.2016 06:27 9,9 C 22,7 C 11,4 C 11,2 C 11,2 C 1,3 C 90 % 89 % 34 % 1010,1 hPa 0,0 l/m 0,0 km/h (0 Bft) W-SW 247 0 min 8,3 C 11,2 C 0,0 km/h (0 Bft)
12.06.2016 06:32 9,9 C 22,7 C 11,5 C 11,4 C 11,4 C 1,5 C 90 % 89 % 39 % 1010,1 hPa 0,0 l/m 0,0 km/h (0 Bft) W-SW 247 0 min 8,3 C 11,4 C 0,0 km/h (0 Bft)
12.06.2016 06:37 10,1 C 22,6 C 11,5 C 11,6 C 11,6 C 1,5 C 90 % 89 % 39 % 1010,1 hPa 0,0 l/m 0,0 km/h (0 Bft) W-SW 247 0 min 8,5 C 11,6 C 0,0 km/h (0 Bft)
12.06.2016 06:42 10,1 C 22,6 C 11,7 C 11,7 C 11,7 C 1,6 C 90 % 89 % 42 % 1010,1 hPa 0,0 l/m 0,0 km/h (0 Bft) W-SW 247 0 min 8,5 C 11,7 C 0,0 km/h (0 Bft)
12.06.2016 06:47 10,3 C 22,6 C 12,0 C 11,9 C 11,9 C 1,6 C 90 % 89 % 42 % 1010,1 hPa 0,0 l/m 0,0 km/h (0 Bft) W-SW 247 0 min 8,7 C 11,9 C 0,0 km/h (0 Bft)
12.06.2016 06:52 10,5 C 22,5 C 12,3 C 12,3 C 12,3 C 1,8 C 90 % 89 % 47 % 1010,1 hPa 0,0 l/m 0,0 km/h (0 Bft) W-SW 247 0 min 8,9 C 12,3 C 0,0 km/h (0 Bft)
12.06.2016 06:57 10,5 C 22,5 C 12,5 C 14,0 C 14,0 C 3,5 C 90 % 89 % 92 % 1010,1 hPa 0,0 l/m 0,0 km/h (0 Bft) N-NO 22 5 min 8,9 C 14,0 C 0,0 km/h (0 Bft)
12.06.2016 07:02 10,8 C 22,5 C 12,8 C 15,6 C 15,6 C 4,8 C 91 % 89 % 100 % 1010,2 hPa 0,0 l/m 0,0 km/h (0 Bft) NO 45 5 min 9,4 C 15,6 C 0,0 km/h (0 Bft)
12.06.2016 07:07 11,1 C 22,4 C 13,1 C 17,0 C 17,0 C 5,9 C 91 % 89 % 100 % 1010,2 hPa 0,0 l/m 0,0 km/h (0 Bft) NO 45 5 min 9,7 C 17,0 C 0,0 km/h (0 Bft)
12.06.2016 07:12 11,5 C 22,5 C 13,5 C 18,6 C 18,6 C 7,1 C 91 % 89 % 100 % 1010,2 hPa 0,0 l/m 0,0 km/h (0 Bft) W-SW 247 5 min 10,1 C 18,6 C 0,0 km/h (0 Bft)
12.06.2016 07:17 11,9 C 22,3 C 13,6 C 19,9 C 19,9 C 8,0 C 91 % 89 % 100 % 1010,2 hPa 0,0 l/m 0,0 km/h (0 Bft) SW 225 5 min 10,5 C 19,9 C 0,0 km/h (0 Bft)
12.06.2016 07:22 12,3 C 22,3 C 13,8 C 19,4 C 19,4 C 7,1 C 91 % 88 % 100 % 1010,2 hPa 0,0 l/m 0,0 km/h (0 Bft) SW 225 5 min 10,9 C 19,4 C 0,0 km/h (0 Bft)
12.06.2016 07:27 12,4 C 22,3 C 14,0 C 19,2 C 19,2 C 6,8 C 91 % 88 % 100 % 1010,2 hPa 0,0 l/m 0,0 km/h (0 Bft) W-SW 247 5 min 11,0 C 19,2 C 0,0 km/h (0 Bft)
12.06.2016 07:32 12,7 C 22,2 C 14,0 C 18,8 C 18,8 C 6,1 C 91 % 87 % 100 % 1010,2 hPa 0,0 l/m 0,0 km/h (0 Bft) SW 225 5 min 11,3 C 18,8 C 0,0 km/h (0 Bft)
12.06.2016 07:37 12,9 C 22,2 C 14,1 C 18,6 C 18,6 C 5,7 C 91 % 87 % 100 % 1010,2 hPa 0,0 l/m 0,0 km/h (0 Bft) SW 225 5 min 11,5 C 18,6 C 0,0 km/h (0 Bft)
12.06.2016 07:42 13,1 C 22,3 C 14,3 C 18,4 C 18,4 C 5,3 C 91 % 87 % 100 % 1010,1 hPa 0,0 l/m 0,0 km/h (0 Bft) W 270 5 min 11,7 C 18,4 C 0,0 km/h (0 Bft)
12.06.2016 07:47 13,3 C 22,2 C 14,3 C 18,3 C 18,3 C 5,0 C 90 % 87 % 100 % 1010,1 hPa 0,0 l/m 0,0 km/h (0 Bft) W-SW 247 5 min 11,7 C 18,3 C 0,0 km/h (0 Bft)
12.06.2016 07:52 13,5 C 22,3 C 14,4 C 18,1 C 18,1 C 4,6 C 89 % 86 % 100 % 1010,1 hPa 0,0 l/m 0,0 km/h (0 Bft) SW 225 5 min 11,7 C 18,1 C 0,0 km/h (0 Bft)
12.06.2016 07:57 13,6 C 22,3 C 14,5 C 18,0 C 18,0 C 4,4 C 89 % 87 % 100 % 1010,1 hPa 0,0 l/m 0,0 km/h (0 Bft) W-NW 292 5 min 11,8 C 18,0 C 0,0 km/h (0 Bft)
12.06.2016 08:02 13,8 C 22,3 C 14,7 C 18,2 C 18,2 C 4,4 C 89 % 87 % 100 % 1010,2 hPa 0,0 l/m 0,0 km/h (0 Bft) N-NW 337 5 min 12,0 C 18,2 C 0,0 km/h (0 Bft)
12.06.2016 08:07 14,1 C 22,3 C 14,9 C 18,4 C 18,4 C 4,3 C 88 % 87 % 100 % 1010,2 hPa 0,0 l/m 0,0 km/h (0 Bft) N-NW 337 5 min 12,1 C 18,4 C 0,0 km/h (0 Bft)
12.06.2016 08:12 14,1 C 22,3 C 15,1 C 18,7 C 18,7 C 4,6 C 87 % 87 % 100 % 1010,2 hPa 0,0 l/m 0,5 km/h (0 Bft) NO 45 5 min 12,0 C 18,7 C 0,0 km/h (0 Bft)
12.06.2016 08:17 14,4 C 22,2 C 15,3 C 19,4 C 19,4 C 5,0 C 86 % 86 % 100 % 1010,2 hPa 0,0 l/m 0,5 km/h (0 Bft) N-NO 22 5 min 12,1 C 19,4 C 0,0 km/h (0 Bft)
12.06.2016 08:22 15,1 C 22,2 C 15,7 C 21,6 C 21,6 C 6,5 C 86 % 86 % 100 % 1010,1 hPa 0,0 l/m 0,0 km/h (0 Bft) SW 225 5 min 12,8 C 21,6 C 0,0 km/h (0 Bft)
12.06.2016 08:27 15,4 C 22,2 C 15,8 C 23,2 C 23,2 C 7,8 C 86 % 86 % 100 % 1010,1 hPa 0,0 l/m 0,0 km/h (0 Bft) S 180 5 min 13,1 C 23,2 C 0,0 km/h (0 Bft)
12.06.2016 08:32 15,7 C 22,2 C 16,2 C 23,0 C 23,0 C 7,3 C 82 % 86 % 100 % 1010,1 hPa 0,0 l/m 1,4 km/h (1 Bft) NO 45 5 min 12,6 C 23,0 C 3,5 km/h (1 Bft)
12.06.2016 08:37 15,7 C 22,1 C 16,4 C 22,4 C 22,4 C 6,7 C 81 % 85 % 100 % 1010,1 hPa 0,0 l/m 2,7 km/h (1 Bft) O-NO 67 5 min 12,4 C 22,4 C 2,4 km/h (1 Bft)
12.06.2016 08:42 16,0 C 22,1 C 16,5 C 22,3 C 22,3 C 6,3 C 81 % 85 % 100 % 1010,0 hPa 0,0 l/m 2,7 km/h (1 Bft) O-NO 67 5 min 12,7 C 22,3 C 2,4 km/h (1 Bft)
12.06.2016 08:47 16,3 C 22,1 C 16,6 C 23,0 C 23,0 C 6,7 C 80 % 85 % 100 % 1010,0 hPa 0,0 l/m 1,8 km/h (1 Bft) N-NW 337 5 min 12,8 C 23,0 C 0,0 km/h (0 Bft)
12.06.2016 08:52 16,9 C 22,1 C 16,8 C 24,6 C 24,6 C 7,7 C 80 % 84 % 100 % 1010,0 hPa 0,0 l/m 1,0 km/h (0 Bft) S 180 5 min 13,4 C 24,6 C 3,7 km/h (1 Bft)
12.06.2016 08:57 17,4 C 22,1 C 16,8 C 25,3 C 25,3 C 7,9 C 79 % 84 % 100 % 1010,0 hPa 0,0 l/m 0,8 km/h (0 Bft) NW 315 5 min 13,7 C 25,3 C 2,9 km/h (1 Bft)
12.06.2016 09:02 18,3 C 22,1 C 17,2 C 26,5 C 26,5 C 8,2 C 76 % 84 % 100 % 1009,9 hPa 0,0 l/m 1,8 km/h (1 Bft) N-NO 22 5 min 14,0 C 26,5 C 2,3 km/h (1 Bft)
12.06.2016 09:07 18,6 C 22,1 C 17,3 C 26,9 C 26,9 C 8,3 C 75 % 83 % 100 % 1009,9 hPa 0,0 l/m 1,4 km/h (1 Bft) NO 45 5 min 14,1 C 26,9 C 0,0 km/h (0 Bft)
12.06.2016 09:12 19,1 C 22,1 C 17,4 C 26,7 C 26,7 C 7,6 C 73 % 82 % 100 % 1009,9 hPa 0,0 l/m 1,4 km/h (1 Bft) O-NO 67 5 min 14,1 C 26,7 C 2,3 km/h (1 Bft)
12.06.2016 09:17 19,1 C 22,1 C 17,6 C 25,8 C 25,8 C 6,7 C 72 % 81 % 100 % 1009,9 hPa 0,0 l/m 1,6 km/h (1 Bft) O 90 5 min 13,9 C 25,8 C 0,0 km/h (0 Bft)
12.06.2016 09:22 19,5 C 22,1 C 17,6 C 25,8 C 25,8 C 6,3 C 71 % 81 % 100 % 1009,6 hPa 0,0 l/m 1,1 km/h (1 Bft) NO 45 5 min 14,1 C 25,8 C 1,9 km/h (1 Bft)
12.06.2016 09:27 19,9 C 22,1 C 17,8 C 26,3 C 26,3 C 6,4 C 71 % 81 % 100 % 1009,6 hPa 0,0 l/m 0,5 km/h (0 Bft) W-SW 247 5 min 14,5 C 26,3 C 0,0 km/h (0 Bft)
12.06.2016 09:32 20,2 C 22,1 C 18,0 C 26,5 C 26,5 C 6,3 C 69 % 80 % 100 % 1009,6 hPa 0,0 l/m 0,6 km/h (0 Bft) O-NO 67 5 min 14,3 C 26,5 C 2,4 km/h (1 Bft)
12.06.2016 09:37 20,3 C 22,0 C 18,1 C 25,8 C 25,8 C 5,5 C 69 % 79 % 100 % 1009,6 hPa 0,0 l/m 0,6 km/h (0 Bft) S 180 5 min 14,4 C 25,8 C 0,0 km/h (0 Bft)
12.06.2016 09:42 20,5 C 22,0 C 18,2 C 25,8 C 25,8 C 5,3 C 69 % 79 % 100 % 1009,5 hPa 0,0 l/m 0,3 km/h (0 Bft) SW 225 5 min 14,6 C 25,8 C 0,0 km/h (0 Bft)
12.06.2016 09:47 20,3 C 22,0 C 18,2 C 25,3 C 25,3 C 5,0 C 67 % 78 % 100 % 1009,5 hPa 0,0 l/m 1,3 km/h (1 Bft) NO 45 5 min 14,0 C 25,3 C 4,7 km/h (1 Bft)
12.06.2016 09:52 20,0 C 22,0 C 18,5 C 24,6 C 24,6 C 4,6 C 67 % 78 % 100 % 1009,5 hPa 0,0 l/m 2,1 km/h (1 Bft) O-NO 67 5 min 13,7 C 24,6 C 4,3 km/h (1 Bft)
12.06.2016 09:57 20,0 C 22,1 C 18,7 C 24,6 C 24,6 C 4,6 C 68 % 77 % 100 % 1009,5 hPa 0,0 l/m 2,3 km/h (1 Bft) O 90 5 min 13,9 C 24,6 C 4,5 km/h (1 Bft)
12.06.2016 10:02 20,1 C 22,1 C 18,8 C 26,0 C 26,0 C 5,9 C 66 % 76 % 100 % 1009,2 hPa 0,0 l/m 2,3 km/h (1 Bft) O-SO 112 5 min 13,5 C 26,0 C 1,8 km/h (1 Bft)
12.06.2016 10:07 20,0 C 22,1 C 18,8 C 27,1 C 27,1 C 7,1 C 67 % 76 % 100 % 1009,2 hPa 0,0 l/m 2,3 km/h (1 Bft) NO 45 5 min 13,7 C 27,1 C 4,8 km/h (1 Bft)
12.06.2016 10:12 20,0 C 22,1 C 19,1 C 26,5 C 26,5 C 6,5 C 67 % 75 % 100 % 1009,2 hPa 0,0 l/m 3,4 km/h (1 Bft) O-NO 67 5 min 13,7 C 26,5 C 6,0 km/h (2 Bft)
12.06.2016 10:17 20,0 C 22,1 C 19,3 C 26,3 C 26,3 C 6,3 C 64 % 74 % 100 % 1009,2 hPa 0,0 l/m 4,3 km/h (1 Bft) O-NO 67 5 min 13,0 C 26,3 C 3,5 km/h (1 Bft)
12.06.2016 10:22 20,2 C 22,1 C 19,5 C 28,2 C 28,2 C 8,0 C 66 % 73 % 100 % 1009,4 hPa 0,0 l/m 3,2 km/h (1 Bft) NO 45 5 min 13,6 C 28,2 C 3,5 km/h (1 Bft)
12.06.2016 10:27 20,4 C 22,1 C 19,6 C 28,9 C 28,9 C 8,5 C 65 % 73 % 100 % 1009,4 hPa 0,0 l/m 2,3 km/h (1 Bft) S-SW 202 5 min 13,6 C 28,9 C 3,4 km/h (1 Bft)
12.06.2016 10:32 20,6 C 22,1 C 19,9 C 29,0 C 29,0 C 8,4 C 64 % 73 % 100 % 1009,4 hPa 0,0 l/m 3,2 km/h (1 Bft) O-NO 67 5 min 13,5 C 29,0 C 5,3 km/h (1 Bft)
12.06.2016 10:37 20,4 C 22,1 C 19,8 C 27,0 C 27,0 C 6,6 C 64 % 73 % 100 % 1009,4 hPa 0,0 l/m 3,2 km/h (1 Bft) O-SO 112 5 min 13,4 C 27,0 C 2,9 km/h (1 Bft)
12.06.2016 10:42 20,3 C 22,2 C 19,8 C 25,2 C 25,2 C 4,9 C 65 % 72 % 100 % 1009,4 hPa 0,0 l/m 3,7 km/h (1 Bft) O 90 5 min 13,5 C 25,2 C 4,3 km/h (1 Bft)
12.06.2016 10:47 20,2 C 22,2 C 19,9 C 24,6 C 24,6 C 4,4 C 65 % 72 % 100 % 1009,4 hPa 0,0 l/m 4,0 km/h (1 Bft) O-NO 67 5 min 13,4 C 24,6 C 7,2 km/h (2 Bft)
12.06.2016 10:52 20,2 C 22,2 C 19,9 C 24,8 C 24,8 C 4,6 C 65 % 72 % 100 % 1009,4 hPa 0,0 l/m 4,2 km/h (1 Bft) O-NO 67 5 min 13,4 C 24,8 C 4,3 km/h (1 Bft)
12.06.2016 10:57 20,5 C 22,2 C 20,0 C 25,4 C 25,4 C 4,9 C 66 % 71 % 100 % 1009,4 hPa 0,0 l/m 3,5 km/h (1 Bft) NO 45 5 min 13,9 C 25,4 C 6,9 km/h (2 Bft)
12.06.2016 11:02 20,4 C 22,2 C 20,1 C 25,5 C 25,5 C 5,1 C 64 % 70 % 100 % 1009,2 hPa 0,0 l/m 3,7 km/h (1 Bft) O-SO 112 5 min 13,4 C 25,5 C 6,3 km/h (2 Bft)
12.06.2016 11:07 20,5 C 22,2 C 20,0 C 24,9 C 24,9 C 4,4 C 64 % 69 % 100 % 1009,2 hPa 0,0 l/m 3,9 km/h (1 Bft) SO 135 5 min 13,5 C 24,9 C 0,0 km/h (0 Bft)
12.06.2016 11:12 20,6 C 22,2 C 20,1 C 25,3 C 25,3 C 4,7 C 64 % 70 % 100 % 1009,2 hPa 0,0 l/m 2,3 km/h (1 Bft) O-NO 67 5 min 13,5 C 25,3 C 3,4 km/h (1 Bft)
12.06.2016 11:17 20,8 C 22,2 C 20,2 C 25,4 C 25,4 C 4,6 C 64 % 70 % 100 % 1009,2 hPa 0,0 l/m 2,1 km/h (1 Bft) N-NO 22 5 min 13,7 C 25,4 C 2,3 km/h (1 Bft)
12.06.2016 11:22 20,8 C 22,1 C 20,4 C 25,4 C 25,4 C 4,6 C 63 % 70 % 100 % 1009,2 hPa 0,0 l/m 3,4 km/h (1 Bft) N-NO 22 5 min 13,5 C 25,4 C 4,8 km/h (1 Bft)
12.06.2016 11:27 21,0 C 22,2 C 20,5 C 26,1 C 26,1 C 5,1 C 64 % 70 % 100 % 1009,2 hPa 0,0 l/m 2,7 km/h (1 Bft) O-SO 112 5 min 13,9 C 26,1 C 2,4 km/h (1 Bft)
12.06.2016 11:32 21,3 C 22,2 C 20,8 C 27,1 C 27,1 C 5,8 C 62 % 69 % 100 % 1009,2 hPa 0,0 l/m 2,6 km/h (1 Bft) O 90 5 min 13,7 C 27,1 C 6,3 km/h (2 Bft)
12.06.2016 11:37 21,2 C 22,2 C 20,8 C 26,7 C 26,7 C 5,5 C 60 % 68 % 100 % 1009,2 hPa 0,0 l/m 3,5 km/h (1 Bft) O 90 5 min 13,1 C 26,7 C 5,1 km/h (1 Bft)
12.06.2016 11:42 21,3 C 22,2 C 20,8 C 26,9 C 26,9 C 5,6 C 62 % 68 % 100 % 1009,1 hPa 0,0 l/m 2,6 km/h (1 Bft) O-NO 67 5 min 13,7 C 26,9 C 2,3 km/h (1 Bft)
12.06.2016 11:47 21,6 C 22,2 C 20,8 C 27,5 C 27,5 C 5,9 C 60 % 67 % 100 % 1009,1 hPa 0,0 l/m 1,3 km/h (1 Bft) W-SW 247 5 min 13,5 C 27,5 C 1,8 km/h (1 Bft)
12.06.2016 11:52 21,7 C 22,2 C 21,0 C 28,0 C 28,0 C 6,3 C 59 % 66 % 100 % 1009,1 hPa 0,0 l/m 2,3 km/h (1 Bft) O-SO 112 5 min 13,3 C 28,0 C 2,6 km/h (1 Bft)
12.06.2016 11:57 21,9 C 22,2 C 21,1 C 28,0 C 28,0 C 6,1 C 59 % 66 % 100 % 1009,1 hPa 0,0 l/m 2,4 km/h (1 Bft) NO 45 5 min 13,5 C 28,0 C 5,8 km/h (2 Bft)
12.06.2016 12:02 21,9 C 22,2 C 21,2 C 27,7 C 27,7 C 5,8 C 59 % 66 % 100 % 1008,9 hPa 0,0 l/m 1,8 km/h (1 Bft) W-NW 292 5 min 13,5 C 27,7 C 0,0 km/h (0 Bft)
12.06.2016 12:07 22,2 C 22,3 C 21,2 C 28,0 C 28,0 C 5,8 C 59 % 66 % 100 % 1008,9 hPa 0,0 l/m 1,4 km/h (1 Bft) S 180 5 min 13,8 C 28,0 C 1,9 km/h (1 Bft)
12.06.2016 12:12 22,3 C 22,3 C 21,1 C 27,5 C 27,5 C 5,2 C 57 % 65 % 100 % 1008,9 hPa 0,0 l/m 0,8 km/h (0 Bft) O-NO 67 5 min 13,4 C 27,5 C 0,0 km/h (0 Bft)
12.06.2016 12:17 22,3 C 22,3 C 21,1 C 27,1 C 27,1 C 4,8 C 57 % 66 % 100 % 1008,9 hPa 0,0 l/m 1,8 km/h (1 Bft) O-NO 67 5 min 13,4 C 27,1 C 4,5 km/h (1 Bft)
12.06.2016 12:22 21,6 C 22,3 C 20,8 C 25,8 C 25,8 C 4,2 C 58 % 64 % 100 % 1008,5 hPa 0,0 l/m 2,6 km/h (1 Bft) S-SO 157 5 min 13,0 C 25,8 C 0,0 km/h (0 Bft)
12.06.2016 12:27 21,4 C 22,3 C 20,9 C 25,0 C 25,0 C 3,6 C 59 % 65 % 95 % 1008,5 hPa 0,0 l/m 3,4 km/h (1 Bft) O-NO 67 5 min 13,0 C 25,0 C 3,2 km/h (1 Bft)
12.06.2016 12:31 21,4 C 22,3 C 20,9 C 25,0 C 25,0 C 3,6 C 59 % 65 % 95 % 1008,5 hPa 0,0 l/m 3,4 km/h (1 Bft) O-NO 67 4 min 13,0 C 25,0 C 3,2 km/h (1 Bft)
12.06.2016 12:35 21,3 C 22,3 C 20,9 C 24,8 C 24,8 C 3,5 C 60 % 66 % 92 % 1008,5 hPa 0,0 l/m 2,4 km/h (1 Bft) O-NO 67 4 min 13,2 C 24,8 C 1,8 km/h (1 Bft)
12.06.2016 12:49 21,2 C 22,3 C 20,8 C 25,0 C 25,0 C 3,8 C 59 % 66 % 100 % 1008,3 hPa 0,0 l/m 2,7 km/h (1 Bft) N 0 14 min 12,9 C 25,0 C 4,0 km/h (1 Bft)
12.06.2016 12:55 21,5 C 22,4 C 21,1 C 26,0 C 26,0 C 4,5 C 61 % 67 % 100 % 1008,3 hPa 0,0 l/m 2,3 km/h (1 Bft) O-SO 112 6 min 13,7 C 26,0 C 5,1 km/h (1 Bft)
12.06.2016 13:00 21,9 C 22,4 C 21,3 C 26,8 C 26,8 C 4,9 C 61 % 66 % 100 % 1008,3 hPa 0,0 l/m 1,8 km/h (1 Bft) SW 225 5 min 14,0 C 26,8 C 0,0 km/h (0 Bft)
12.06.2016 13:05 22,1 C 22,4 C 21,3 C 27,0 C 27,0 C 4,9 C 60 % 66 % 100 % 1008,1 hPa 0,0 l/m 1,4 km/h (1 Bft) O-NO 67 5 min 14,0 C 27,0 C 3,5 km/h (1 Bft)
12.06.2016 13:10 21,9 C 22,4 C 21,2 C 26,4 C 26,4 C 4,5 C 59 % 65 % 100 % 1008,1 hPa 0,0 l/m 1,9 km/h (1 Bft) O-NO 67 5 min 13,5 C 26,4 C 2,7 km/h (1 Bft)
12.06.2016 13:15 21,5 C 22,4 C 21,1 C 25,1 C 25,1 C 3,6 C 61 % 67 % 95 % 1008,1 hPa 0,0 l/m 3,1 km/h (1 Bft) NO 45 5 min 13,7 C 25,1 C 5,6 km/h (1 Bft)
12.06.2016 13:20 21,3 C 22,4 C 20,9 C 24,1 C 24,1 C 2,8 C 62 % 67 % 74 % 1008,1 hPa 0,0 l/m 3,2 km/h (1 Bft) NO 45 0 min 13,7 C 24,1 C 0,0 km/h (0 Bft)
12.06.2016 13:25 20,9 C 22,4 C 20,6 C 23,2 C 23,2 C 2,3 C 65 % 69 % 61 % 1008,2 hPa 0,0 l/m 2,1 km/h (1 Bft) W-NW 292 0 min 14,1 C 23,2 C 2,6 km/h (1 Bft)
12.06.2016 13:30 20,9 C 22,4 C 20,3 C 22,8 C 22,8 C 1,9 C 66 % 70 % 50 % 1008,2 hPa 0,0 l/m 0,8 km/h (0 Bft) O-SO 112 0 min 14,3 C 22,8 C 1,8 km/h (1 Bft)
12.06.2016 13:35 20,7 C 22,5 C 20,0 C 22,0 C 22,0 C 1,3 C 67 % 71 % 34 % 1008,2 hPa 0,0 l/m 1,1 km/h (1 Bft) N-NO 22 0 min 14,3 C 22,0 C 0,0 km/h (0 Bft)
12.06.2016 13:40 20,5 C 22,6 C 19,7 C 21,0 C 21,0 C 0,5 C 68 % 73 % 13 % 1008,2 hPa 0,0 l/m 1,0 km/h (0 Bft) SO 135 0 min 14,4 C 21,0 C 0,0 km/h (0 Bft)
12.06.2016 13:45 20,4 C 22,6 C 19,3 C 20,3 C 20,2 C 0,0 C 69 % 74 % 0 % 1008,1 hPa 0,0 l/m 0,6 km/h (0 Bft) S 180 0 min 14,5 C 20,2 C 10,5 km/h (2 Bft)
12.06.2016 13:50 20,2 C 22,6 C 19,3 C 20,1 C 19,9 C 0,0 C 70 % 75 % 0 % 1008,1 hPa 0,0 l/m 1,6 km/h (1 Bft) S-SW 202 0 min 14,5 C 19,9 C 2,7 km/h (1 Bft)
12.06.2016 13:55 20,0 C 22,6 C 18,9 C 19,8 C 19,5 C 0,0 C 70 % 75 % 0 % 1008,1 hPa 0,0 l/m 2,1 km/h (1 Bft) SW 225 0 min 14,4 C 19,5 C 6,9 km/h (2 Bft)
12.06.2016 14:00 19,9 C 22,6 C 18,8 C 19,7 C 19,4 C 0,0 C 71 % 76 % 0 % 1008,1 hPa 0,0 l/m 1,6 km/h (1 Bft) O-SO 112 0 min 14,5 C 19,4 C 0,0 km/h (0 Bft)
12.06.2016 14:10 19,5 C 22,7 C 18,3 C 19,2 C 18,5 C 0,0 C 73 % 78 % 0 % 1008,4 hPa 0,0 l/m 0,2 km/h (0 Bft) N-NO 22 0 min 14,5 C 18,5 C 0,0 km/h (0 Bft)
12.06.2016 14:15 19,2 C 22,7 C 18,0 C 18,7 C 17,8 C 0,0 C 75 % 79 % 0 % 1008,4 hPa 0,0 l/m 0,0 km/h (0 Bft) NO 45 0 min 14,7 C 17,8 C 0,0 km/h (0 Bft)
12.06.2016 14:20 19,0 C 22,7 C 17,9 C 18,5 C 17,6 C 0,0 C 75 % 80 % 0 % 1008,4 hPa 0,0 l/m 0,2 km/h (0 Bft) SW 225 0 min 14,5 C 17,6 C 0,0 km/h (0 Bft)
12.06.2016 14:25 18,9 C 22,8 C 17,7 C 18,4 C 17,4 C 0,0 C 75 % 81 % 0 % 1007,7 hPa 0,0 l/m 0,3 km/h (0 Bft) W 270 0 min 14,4 C 17,4 C 0,0 km/h (0 Bft)
12.06.2016 14:35 18,7 C 22,8 C 17,3 C 18,3 C 17,4 C 0,0 C 77 % 83 % 0 % 1007,7 hPa 0,0 l/m 0,2 km/h (0 Bft) W 270 0 min 14,6 C 17,4 C 2,1 km/h (1 Bft)
12.06.2016 14:40 18,5 C 22,8 C 17,2 C 18,2 C 17,5 C 0,0 C 77 % 84 % 0 % 1007,7 hPa 0,0 l/m 0,0 km/h (0 Bft) S 180 0 min 14,4 C 17,5 C 0,0 km/h (0 Bft)
12.06.2016 14:45 18,5 C 22,9 C 17,2 C 18,3 C 17,9 C 0,0 C 77 % 84 % 0 % 1007,6 hPa 0,0 l/m 0,0 km/h (0 Bft) NO 45 0 min 14,4 C 17,9 C 0,0 km/h (0 Bft)
12.06.2016 14:50 18,5 C 22,9 C 17,3 C 18,3 C 17,9 C 0,0 C 77 % 84 % 0 % 1007,6 hPa 0,0 l/m 0,0 km/h (0 Bft) O-NO 67 0 min 14,4 C 17,9 C 0,0 km/h (0 Bft)
12.06.2016 14:52 18,4 C 22,9 C 17,2 C 18,3 C 18,0 C 0,0 C 77 % 85 % 0 % 1007,6 hPa 0,0 l/m 0,0 km/h (0 Bft) SO 135 0 min 14,3 C 18,0 C 0,0 km/h (0 Bft)
12.06.2016 14:57 18,3 C 22,9 C 17,3 C 18,3 C 18,3 C 0,0 C 77 % 85 % 0 % 1007,6 hPa 0,0 l/m 0,5 km/h (0 Bft) O-NO 67 0 min 14,2 C 18,3 C 2,6 km/h (1 Bft)
12.06.2016 15:02 18,2 C 22,8 C 17,6 C 18,7 C 18,7 C 0,5 C 78 % 85 % 13 % 1007,3 hPa 0,0 l/m 0,8 km/h (0 Bft) NO 45 0 min 14,3 C 18,7 C 0,0 km/h (0 Bft)
12.06.2016 15:07 18,2 C 22,8 C 17,9 C 19,8 C 19,8 C 1,6 C 78 % 85 % 42 % 1007,3 hPa 0,0 l/m 0,3 km/h (0 Bft) O-NO 67 0 min 14,3 C 19,8 C 0,0 km/h (0 Bft)
12.06.2016 15:12 18,4 C 22,8 C 18,3 C 21,7 C 21,7 C 3,3 C 78 % 85 % 87 % 1007,3 hPa 0,0 l/m 0,6 km/h (0 Bft) N-NO 22 5 min 14,5 C 21,7 C 0,0 km/h (0 Bft)
12.06.2016 15:19 18,8 C 22,8 C 18,5 C 22,5 C 22,5 C 3,7 C 77 % 85 % 97 % 1007,3 hPa 0,0 l/m 1,1 km/h (1 Bft) N-NO 22 7 min 14,7 C 22,5 C 0,0 km/h (0 Bft)
12.06.2016 15:25 19,1 C 22,8 C 18,9 C 24,0 C 24,0 C 4,9 C 77 % 82 % 100 % 1007,1 hPa 0,0 l/m 1,1 km/h (1 Bft) N-NO 22 6 min 15,0 C 24,0 C 3,4 km/h (1 Bft)
12.06.2016 15:30 19,4 C 22,8 C 18,9 C 24,2 C 24,2 C 4,8 C 77 % 83 % 100 % 1007,1 hPa 0,0 l/m 1,1 km/h (1 Bft) NW 315 5 min 15,3 C 24,2 C 0,0 km/h (0 Bft)
12.06.2016 15:35 19,6 C 22,8 C 19,0 C 24,2 C 24,2 C 4,6 C 76 % 82 % 100 % 1007,1 hPa 0,0 l/m 1,9 km/h (1 Bft) NW 315 5 min 15,2 C 24,2 C 2,9 km/h (1 Bft)
12.06.2016 15:54 19,7 C 22,8 C 19,1 C 23,4 C 23,4 C 3,7 C 73 % 78 % 97 % 1006,8 hPa 0,0 l/m 2,6 km/h (1 Bft) N 0 19 min 14,7 C 23,4 C 3,5 km/h (1 Bft)
12.06.2016 15:55 19,7 C 22,8 C 19,1 C 23,4 C 23,4 C 3,7 C 73 % 78 % 97 % 1006,8 hPa 0,0 l/m 2,6 km/h (1 Bft) N 0 1 min 14,7 C 23,4 C 3,5 km/h (1 Bft)
12.06.2016 16:00 19,7 C 22,8 C 19,2 C 23,3 C 23,3 C 3,6 C 74 % 80 % 95 % 1006,8 hPa 0,0 l/m 2,9 km/h (1 Bft) O 90 5 min 14,9 C 23,3 C 1,8 km/h (1 Bft)
12.06.2016 16:05 20,1 C 22,8 C 20,3 C 25,0 C 25,0 C 4,9 C 73 % 78 % 100 % 1006,6 hPa 0,0 l/m 2,4 km/h (1 Bft) SO 135 5 min 15,1 C 25,0 C 2,7 km/h (1 Bft)
12.06.2016 16:10 20,2 C 22,8 C 20,8 C 26,6 C 26,6 C 6,4 C 72 % 76 % 100 % 1006,6 hPa 0,0 l/m 2,7 km/h (1 Bft) O-SO 112 5 min 15,0 C 26,6 C 6,3 km/h (2 Bft)
12.06.2016 16:15 20,4 C 22,8 C 21,5 C 28,0 C 28,0 C 7,6 C 70 % 74 % 100 % 1006,6 hPa 0,0 l/m 3,1 km/h (1 Bft) O-SO 112 5 min 14,7 C 28,0 C 3,4 km/h (1 Bft)
12.06.2016 16:20 20,6 C 22,8 C 22,0 C 28,1 C 28,1 C 7,5 C 70 % 72 % 100 % 1006,6 hPa 0,0 l/m 3,1 km/h (1 Bft) O 90 5 min 14,9 C 28,1 C 3,4 km/h (1 Bft)
12.06.2016 16:25 20,7 C 22,8 C 22,0 C 27,4 C 27,4 C 6,7 C 67 % 69 % 100 % 1006,5 hPa 0,0 l/m 3,2 km/h (1 Bft) O 90 5 min 14,3 C 27,4 C 3,1 km/h (1 Bft)
12.06.2016 16:30 20,6 C 22,8 C 21,9 C 27,1 C 27,1 C 6,5 C 68 % 69 % 100 % 1006,5 hPa 0,0 l/m 2,9 km/h (1 Bft) N-NO 22 5 min 14,5 C 27,1 C 3,1 km/h (1 Bft)
12.06.2016 16:32 20,7 C 22,8 C 21,5 C 25,8 C 25,8 C 5,1 C 68 % 70 % 100 % 1006,5 hPa 0,0 l/m 1,9 km/h (1 Bft) O-SO 112 2 min 14,6 C 25,8 C 0,0 km/h (0 Bft)
12.06.2016 16:37 20,7 C 22,8 C 20,9 C 25,1 C 25,1 C 4,4 C 68 % 71 % 100 % 1006,5 hPa 0,0 l/m 1,3 km/h (1 Bft) O-NO 67 5 min 14,6 C 25,1 C 0,0 km/h (0 Bft)
12.06.2016 16:42 20,7 C 22,8 C 20,5 C 23,9 C 23,9 C 3,2 C 67 % 71 % 84 % 1006,4 hPa 0,0 l/m 1,6 km/h (1 Bft) SO 135 0 min 14,3 C 23,9 C 2,7 km/h (1 Bft)
12.06.2016 16:47 20,5 C 22,8 C 20,3 C 23,1 C 23,1 C 2,6 C 67 % 71 % 68 % 1006,4 hPa 0,0 l/m 1,4 km/h (1 Bft) O-NO 67 0 min 14,2 C 23,1 C 0,0 km/h (0 Bft)
12.06.2016 16:52 20,4 C 22,8 C 20,0 C 22,3 C 22,3 C 1,9 C 67 % 71 % 50 % 1006,4 hPa 0,0 l/m 0,8 km/h (0 Bft) NO 45 0 min 14,1 C 22,3 C 3,1 km/h (1 Bft)
12.06.2016 16:57 20,5 C 22,8 C 19,9 C 21,8 C 21,8 C 1,3 C 68 % 72 % 34 % 1006,4 hPa 0,0 l/m 0,8 km/h (0 Bft) O-SO 112 0 min 14,4 C 21,8 C 2,7 km/h (1 Bft)
12.06.2016 17:02 20,2 C 22,9 C 19,5 C 20,9 C 20,9 C 0,7 C 68 % 73 % 18 % 1006,4 hPa 0,0 l/m 1,4 km/h (1 Bft) O 90 0 min 14,1 C 20,9 C 0,0 km/h (0 Bft)
12.06.2016 17:07 20,1 C 23,2 C 18,7 C 19,8 C 19,3 C 0,0 C 71 % 78 % 0 % 1006,4 hPa 0,7 l/m 1,6 km/h (1 Bft) O-SO 112 0 min 14,7 C 19,3 C 4,5 km/h (1 Bft)
12.06.2016 17:12 18,9 C 23,3 C 17,2 C 18,4 C 17,3 C 0,0 C 73 % 84 % 0 % 1006,4 hPa 5,5 l/m 1,4 km/h (1 Bft) O-SO 112 0 min 13,9 C 17,3 C 1,8 km/h (1 Bft)
12.06.2016 17:17 18,2 C 23,3 C 16,9 C 17,6 C 16,5 C 0,0 C 74 % 87 % 0 % 1006,4 hPa 2,1 l/m 1,3 km/h (1 Bft) NO 45 0 min 13,5 C 16,5 C 0,0 km/h (0 Bft)
12.06.2016 17:22 17,7 C 23,3 C 16,4 C 17,1 C 15,9 C 0,0 C 76 % 88 % 0 % 1007,4 hPa 3,4 l/m 0,5 km/h (0 Bft) O-NO 67 0 min 13,4 C 15,9 C 3,4 km/h (1 Bft)
12.06.2016 17:27 16,9 C 23,3 C 16,1 C 16,5 C 15,6 C 0,0 C 78 % 89 % 0 % 1007,4 hPa 2,1 l/m 1,8 km/h (1 Bft) O-NO 67 0 min 13,0 C 15,6 C 4,0 km/h (1 Bft)
12.06.2016 17:34 16,0 C 23,4 C 15,8 C 15,7 C 15,2 C 0,0 C 79 % 89 % 0 % 1007,4 hPa 2,7 l/m 3,7 km/h (1 Bft) O-NO 67 0 min 12,4 C 15,2 C 5,5 km/h (1 Bft)
12.06.2016 17:40 15,5 C 23,4 C 15,7 C 15,4 C 15,1 C 0,0 C 81 % 89 % 0 % 1007,4 hPa 0,7 l/m 3,9 km/h (1 Bft) O-NO 67 0 min 12,3 C 15,1 C 7,4 km/h (2 Bft)
12.06.2016 17:45 15,1 C 23,4 C 15,7 C 15,1 C 15,0 C 0,0 C 81 % 88 % 0 % 1006,7 hPa 0,0 l/m 2,9 km/h (1 Bft) S 180 0 min 11,9 C 15,0 C 0,0 km/h (0 Bft)
12.06.2016 17:50 15,0 C 23,4 C 15,7 C 15,1 C 15,1 C 0,1 C 82 % 88 % 3 % 1006,7 hPa 0,0 l/m 1,1 km/h (1 Bft) W-NW 292 0 min 12,0 C 15,1 C 0,0 km/h (0 Bft)
12.06.2016 17:55 14,9 C 23,4 C 15,7 C 15,2 C 15,2 C 0,3 C 82 % 86 % 8 % 1006,7 hPa 0,7 l/m 0,2 km/h (0 Bft) W 270 0 min 11,9 C 15,2 C 2,3 km/h (1 Bft)
12.06.2016 18:00 14,9 C 23,4 C 15,7 C 15,3 C 15,3 C 0,4 C 83 % 85 % 11 % 1006,7 hPa 0,0 l/m 0,2 km/h (0 Bft) NW 315 0 min 12,0 C 15,3 C 0,0 km/h (0 Bft)
12.06.2016 18:05 14,8 C 23,4 C 15,6 C 15,4 C 15,4 C 0,6 C 84 % 84 % 16 % 1006,4 hPa 0,0 l/m 0,0 km/h (0 Bft) O-NO 67 0 min 12,1 C 15,4 C 0,0 km/h (0 Bft)
12.06.2016 18:10 14,8 C 23,4 C 15,6 C 15,4 C 15,4 C 0,6 C 84 % 84 % 16 % 1006,4 hPa 0,7 l/m 0,0 km/h (0 Bft) O-NO 67 0 min 12,1 C 15,4 C 0,0 km/h (0 Bft)
12.06.2016 18:15 14,7 C 23,4 C 15,6 C 15,5 C 15,5 C 0,8 C 84 % 83 % 21 % 1006,4 hPa 0,0 l/m 0,0 km/h (0 Bft) O-SO 112 0 min 12,0 C 15,5 C 0,0 km/h (0 Bft)
12.06.2016 18:20 14,8 C 23,4 C 15,6 C 15,6 C 15,6 C 0,8 C 85 % 82 % 21 % 1006,4 hPa 0,0 l/m 0,0 km/h (0 Bft) SW 225 0 min 12,3 C 15,6 C 0,0 km/h (0 Bft)
12.06.2016 18:25 14,9 C 23,4 C 15,7 C 15,9 C 15,9 C 1,0 C 85 % 81 % 26 % 1006,1 hPa 0,0 l/m 0,0 km/h (0 Bft) W-SW 247 0 min 12,4 C 15,9 C 0,0 km/h (0 Bft)
12.06.2016 18:30 15,1 C 23,5 C 15,7 C 16,1 C 16,1 C 1,0 C 86 % 80 % 26 % 1006,1 hPa 0,0 l/m 0,0 km/h (0 Bft) NW 315 0 min 12,8 C 16,1 C 0,0 km/h (0 Bft)
12.06.2016 18:35 15,1 C 23,5 C 15,6 C 16,1 C 16,1 C 1,0 C 86 % 79 % 26 % 1006,1 hPa 0,0 l/m 0,0 km/h (0 Bft) NW 315 0 min 12,8 C 16,1 C 0,0 km/h (0 Bft)
12.06.2016 18:58 15,5 C 23,5 C 16,0 C 16,4 C 16,4 C 0,9 C 88 % 76 % 24 % 1005,8 hPa 0,7 l/m 0,0 km/h (0 Bft) N 0 0 min 13,5 C 16,4 C 0,0 km/h (0 Bft)
12.06.2016 19:10 15,4 C 23,5 C 15,9 C 16,3 C 16,3 C 0,9 C 87 % 76 % 24 % 1005,6 hPa 0,0 l/m 0,0 km/h (0 Bft) NO 45 0 min 13,2 C 16,3 C 0,0 km/h (0 Bft)
12.06.2016 19:13 15,3 C 23,5 C 15,8 C 16,1 C 16,1 C 0,8 C 87 % 76 % 21 % 1005,6 hPa 0,0 l/m 0,2 km/h (0 Bft) N-NW 337 0 min 13,1 C 16,1 C 0,0 km/h (0 Bft)
12.06.2016 19:14 15,3 C 23,5 C 15,8 C 16,1 C 16,1 C 0,8 C 87 % 76 % 21 % 1005,6 hPa 0,0 l/m 0,2 km/h (0 Bft) N-NW 337 0 min 13,1 C 16,1 C 0,0 km/h (0 Bft)
12.06.2016 19:15 15,3 C 23,5 C 15,8 C 16,1 C 16,1 C 0,8 C 87 % 76 % 21 % 1005,6 hPa 0,0 l/m 0,2 km/h (0 Bft) N-NW 337 0 min 13,1 C 16,1 C 0,0 km/h (0 Bft)
12.06.2016 19:16 15,3 C 23,5 C 15,8 C 16,1 C 16,1 C 0,8 C 87 % 76 % 21 % 1005,6 hPa 0,0 l/m 0,2 km/h (0 Bft) N-NW 337 0 min 13,1 C 16,1 C 0,0 km/h (0 Bft)
12.06.2016 19:17 15,2 C 23,5 C 15,8 C 15,9 C 15,9 C 0,7 C 87 % 76 % 18 % 1005,6 hPa 0,0 l/m 0,2 km/h (0 Bft) N-NW 337 0 min 13,0 C 15,9 C 0,0 km/h (0 Bft)
12.06.2016 19:27 15,1 C 23,5 C 15,7 C 15,7 C 15,7 C 0,6 C 87 % 76 % 16 % 1005,6 hPa 0,0 l/m 0,0 km/h (0 Bft) NO 45 0 min 13,0 C 15,7 C 0,0 km/h (0 Bft)
12.06.2016 19:35 15,1 C 23,5 C 15,6 C 15,6 C 15,6 C 0,5 C 87 % 76 % 13 % 1005,6 hPa 0,0 l/m 0,0 km/h (0 Bft) O-SO 112 0 min 13,0 C 15,6 C 0,0 km/h (0 Bft)
12.06.2016 19:40 15,1 C 23,5 C 15,6 C 15,6 C 15,6 C 0,5 C 87 % 75 % 13 % 1005,6 hPa 0,0 l/m 0,0 km/h (0 Bft) SO 135 0 min 13,0 C 15,6 C 0,0 km/h (0 Bft)
12.06.2016 19:45 15,1 C 23,5 C 15,7 C 15,6 C 15,6 C 0,5 C 88 % 75 % 13 % 1005,6 hPa 0,0 l/m 0,0 km/h (0 Bft) NW 315 0 min 13,1 C 15,6 C 0,0 km/h (0 Bft)
12.06.2016 19:50 15,2 C 23,6 C 15,9 C 15,7 C 15,7 C 0,5 C 88 % 74 % 13 % 1005,6 hPa 0,0 l/m 0,0 km/h (0 Bft) SW 225 0 min 13,2 C 15,7 C 0,0 km/h (0 Bft)
12.06.2016 19:55 15,2 C 23,5 C 15,9 C 15,7 C 15,7 C 0,5 C 88 % 74 % 13 % 1005,6 hPa 0,0 l/m 0,0 km/h (0 Bft) SO 135 0 min 13,2 C 15,7 C 0,0 km/h (0 Bft)
12.06.2016 19:57 15,2 C 23,6 C 15,9 C 15,7 C 15,7 C 0,5 C 88 % 74 % 13 % 1005,6 hPa 0,0 l/m 0,0 km/h (0 Bft) SO 135 0 min 13,2 C 15,7 C 0,0 km/h (0 Bft)
12.06.2016 20:02 15,2 C 23,6 C 15,9 C 15,8 C 15,8 C 0,6 C 88 % 73 % 16 % 1004,6 hPa 0,0 l/m 0,0 km/h (0 Bft) SO 135 0 min 13,2 C 15,8 C 0,0 km/h (0 Bft)
12.06.2016 20:07 15,3 C 23,6 C 16,0 C 15,8 C 15,8 C 0,5 C 88 % 73 % 13 % 1004,6 hPa 0,0 l/m 0,0 km/h (0 Bft) N-NW 337 0 min 13,3 C 15,8 C 0,0 km/h (0 Bft)
12.06.2016 20:12 15,3 C 23,6 C 15,9 C 15,8 C 15,8 C 0,5 C 89 % 73 % 13 % 1004,6 hPa 0,0 l/m 0,0 km/h (0 Bft) O 90 0 min 13,5 C 15,8 C 0,0 km/h (0 Bft)
12.06.2016 20:17 15,3 C 23,6 C 16,0 C 15,8 C 15,8 C 0,5 C 89 % 73 % 13 % 1004,6 hPa 0,0 l/m 0,0 km/h (0 Bft) O 90 0 min 13,5 C 15,8 C 0,0 km/h (0 Bft)
12.06.2016 20:22 15,2 C 23,6 C 15,9 C 15,7 C 15,7 C 0,5 C 89 % 73 % 13 % 1005,4 hPa 0,0 l/m 0,0 km/h (0 Bft) N-NO 22 0 min 13,4 C 15,7 C 0,0 km/h (0 Bft)
12.06.2016 20:27 15,3 C 23,6 C 15,9 C 15,7 C 15,7 C 0,4 C 89 % 73 % 11 % 1005,4 hPa 0,0 l/m 0,0 km/h (0 Bft) N-NO 22 0 min 13,5 C 15,7 C 0,0 km/h (0 Bft)
12.06.2016 20:33 15,2 C 23,6 C 15,9 C 15,7 C 15,7 C 0,5 C 89 % 73 % 13 % 1005,4 hPa 0,0 l/m 0,0 km/h (0 Bft) O 90 0 min 13,4 C 15,7 C 0,0 km/h (0 Bft)
12.06.2016 20:40 15,3 C 23,6 C 15,9 C 15,6 C 15,6 C 0,3 C 89 % 73 % 8 % 1005,4 hPa 0,0 l/m 0,0 km/h (0 Bft) O-NO 67 0 min 13,5 C 15,6 C 0,0 km/h (0 Bft)
12.06.2016 20:45 15,1 C 23,6 C 15,9 C 15,5 C 15,5 C 0,4 C 89 % 73 % 11 % 1005,2 hPa 0,0 l/m 0,0 km/h (0 Bft) N-NO 22 0 min 13,3 C 15,5 C 0,0 km/h (0 Bft)
12.06.2016 20:50 15,0 C 23,6 C 15,7 C 15,4 C 15,4 C 0,4 C 89 % 73 % 11 % 1005,2 hPa 0,0 l/m 0,0 km/h (0 Bft) NO 45 0 min 13,2 C 15,4 C 0,0 km/h (0 Bft)
12.06.2016 20:55 15,1 C 23,6 C 15,7 C 15,4 C 15,4 C 0,3 C 89 % 72 % 8 % 1005,2 hPa 0,0 l/m 0,0 km/h (0 Bft) NO 45 0 min 13,3 C 15,4 C 0,0 km/h (0 Bft)
12.06.2016 21:00 15,0 C 23,6 C 15,7 C 15,4 C 15,4 C 0,4 C 89 % 72 % 11 % 1005,2 hPa 0,0 l/m 0,0 km/h (0 Bft) O-NO 67 5 min 13,2 C 15,4 C 0,0 km/h (0 Bft)
12.06.2016 21:05 15,0 C 23,6 C 15,9 C 15,5 C 15,5 C 0,5 C 89 % 72 % 13 % 1005,3 hPa 0,0 l/m 0,0 km/h (0 Bft) NO 45 5 min 13,2 C 15,5 C 0,0 km/h (0 Bft)
12.06.2016 21:10 15,1 C 23,6 C 15,9 C 15,5 C 15,5 C 0,4 C 89 % 72 % 11 % 1005,3 hPa 0,0 l/m 0,0 km/h (0 Bft) W 270 5 min 13,3 C 15,5 C 0,0 km/h (0 Bft)
12.06.2016 21:15 15,0 C 23,6 C 15,9 C 15,5 C 15,5 C 0,5 C 89 % 72 % 0 % 1005,3 hPa 0,0 l/m 0,0 km/h (0 Bft) SW 225 0 min 13,2 C 15,5 C 0,0 km/h (0 Bft)
12.06.2016 21:20 15,0 C 23,6 C 15,9 C 15,5 C 15,5 C 0,5 C 89 % 71 % 0 % 1005,3 hPa 0,0 l/m 0,0 km/h (0 Bft) W 270 0 min 13,2 C 15,5 C 0,0 km/h (0 Bft)
12.06.2016 21:25 15,1 C 23,6 C 15,9 C 15,5 C 15,5 C 0,4 C 89 % 72 % 0 % 1004,9 hPa 0,0 l/m 0,0 km/h (0 Bft) W 270 0 min 13,3 C 15,5 C 0,0 km/h (0 Bft)
12.06.2016 21:30 15,1 C 23,6 C 15,9 C 15,5 C 15,5 C 0,4 C 89 % 71 % 0 % 1004,9 hPa 0,0 l/m 0,0 km/h (0 Bft) NO 45 0 min 13,3 C 15,5 C 0,0 km/h (0 Bft)
12.06.2016 21:35 15,1 C 23,6 C 15,8 C 15,5 C 15,5 C 0,4 C 89 % 71 % 0 % 1004,9 hPa 0,7 l/m 0,0 km/h (0 Bft) O-NO 67 0 min 13,3 C 15,5 C 0,0 km/h (0 Bft)
12.06.2016 21:48 15,1 C 23,6 C 15,8 C 15,4 C 15,4 C 0,3 C 89 % 71 % 0 % 1004,8 hPa 0,7 l/m 0,0 km/h (0 Bft) N 0 0 min 13,3 C 15,4 C 0,0 km/h (0 Bft)
12.06.2016 21:58 14,9 C 23,7 C 15,6 C 15,2 C 15,2 C 0,3 C 89 % 71 % 0 % 1004,8 hPa 0,0 l/m 0,0 km/h (0 Bft) SO 135 0 min 13,1 C 15,2 C 0,0 km/h (0 Bft)
12.06.2016 21:59 14,9 C 23,7 C 15,6 C 15,2 C 15,2 C 0,3 C 89 % 71 % 0 % 1004,8 hPa 0,0 l/m 0,0 km/h (0 Bft) SO 135 0 min 13,1 C 15,2 C 0,0 km/h (0 Bft)
12.06.2016 22:00 14,9 C 23,7 C 15,6 C 15,2 C 15,2 C 0,3 C 89 % 71 % 0 % 1004,8 hPa 0,0 l/m 0,0 km/h (0 Bft) SO 135 0 min 13,1 C 15,2 C 0,0 km/h (0 Bft)
12.06.2016 22:01 14,9 C 23,7 C 15,6 C 15,2 C 15,2 C 0,3 C 89 % 71 % 0 % 1004,8 hPa 0,0 l/m 0,0 km/h (0 Bft) SO 135 0 min 13,1 C 15,2 C 0,0 km/h (0 Bft)
12.06.2016 22:05 14,8 C 23,7 C 15,7 C 15,2 C 15,2 C 0,4 C 89 % 71 % 0 % 1004,9 hPa 0,0 l/m 0,0 km/h (0 Bft) O-NO 67 0 min 13,0 C 15,2 C 0,0 km/h (0 Bft)
12.06.2016 22:13 14,8 C 23,7 C 15,5 C 15,0 C 15,0 C 0,2 C 89 % 71 % 0 % 1004,9 hPa 0,0 l/m 0,0 km/h (0 Bft) N 360 0 min 13,0 C 15,0 C 0,0 km/h (0 Bft)
12.06.2016 22:14 14,8 C 23,7 C 15,5 C 15,0 C 15,0 C 0,2 C 89 % 71 % 0 % 1004,9 hPa 0,0 l/m 0,0 km/h (0 Bft) N 360 0 min 13,0 C 15,0 C 0,0 km/h (0 Bft)
12.06.2016 22:15 14,8 C 23,7 C 15,5 C 15,0 C 15,0 C 0,2 C 89 % 71 % 0 % 1004,9 hPa 0,0 l/m 0,0 km/h (0 Bft) N 360 0 min 13,0 C 15,0 C 0,0 km/h (0 Bft)
12.06.2016 22:16 14,8 C 23,7 C 15,5 C 15,0 C 15,0 C 0,2 C 89 % 71 % 0 % 1004,9 hPa 0,0 l/m 0,0 km/h (0 Bft) N 360 0 min 13,0 C 15,0 C 0,0 km/h (0 Bft)
12.06.2016 22:17 14,8 C 23,7 C 15,5 C 15,0 C 15,0 C 0,2 C 89 % 71 % 0 % 1004,9 hPa 0,0 l/m 0,0 km/h (0 Bft) N 360 0 min 13,0 C 15,0 C 0,0 km/h (0 Bft)
12.06.2016 22:19 14,8 C 23,8 C 15,5 C 15,0 C 15,0 C 0,2 C 89 % 71 % 0 % 1004,9 hPa 0,0 l/m 0,0 km/h (0 Bft) NO 45 0 min 13,0 C 15,0 C 0,0 km/h (0 Bft)
12.06.2016 22:22 14,7 C 23,7 C 15,5 C 15,0 C 15,0 C 0,3 C 90 % 71 % 0 % 1004,9 hPa 0,0 l/m 0,0 km/h (0 Bft) NO 45 0 min 13,1 C 15,0 C 0,0 km/h (0 Bft)
12.06.2016 22:27 14,7 C 23,8 C 15,5 C 15,0 C 15,0 C 0,3 C 90 % 71 % 0 % 1004,9 hPa 0,0 l/m 0,0 km/h (0 Bft) N 360 0 min 13,1 C 15,0 C 0,0 km/h (0 Bft)
12.06.2016 22:32 14,7 C 23,7 C 15,5 C 15,0 C 15,0 C 0,3 C 90 % 71 % 0 % 1004,9 hPa 0,0 l/m 0,0 km/h (0 Bft) SO 135 0 min 13,1 C 15,0 C 0,0 km/h (0 Bft)
12.06.2016 22:34 14,7 C 23,7 C 15,5 C 15,0 C 15,0 C 0,3 C 90 % 71 % 0 % 1004,9 hPa 0,0 l/m 0,0 km/h (0 Bft) SO 135 0 min 13,1 C 15,0 C 0,0 km/h (0 Bft)
12.06.2016 22:40 14,6 C 23,8 C 15,5 C 15,0 C 15,0 C 0,4 C 90 % 71 % 0 % 1004,9 hPa 0,0 l/m 0,0 km/h (0 Bft) NO 45 0 min 13,0 C 15,0 C 0,0 km/h (0 Bft)
12.06.2016 22:45 14,6 C 23,8 C 15,5 C 15,0 C 15,0 C 0,4 C 90 % 71 % 0 % 1004,7 hPa 0,0 l/m 0,0 km/h (0 Bft) NO 45 0 min 13,0 C 15,0 C 0,0 km/h (0 Bft)
12.06.2016 22:50 14,6 C 23,8 C 15,4 C 15,0 C 15,0 C 0,4 C 90 % 71 % 0 % 1004,7 hPa 0,0 l/m 0,0 km/h (0 Bft) NO 45 0 min 13,0 C 15,0 C 0,0 km/h (0 Bft)
12.06.2016 22:55 14,7 C 23,8 C 15,4 C 15,0 C 15,0 C 0,3 C 90 % 71 % 0 % 1004,7 hPa 0,0 l/m 0,0 km/h (0 Bft) W-SW 247 0 min 13,1 C 15,0 C 0,0 km/h (0 Bft)
12.06.2016 23:00 14,7 C 23,8 C 15,4 C 15,0 C 15,0 C 0,3 C 90 % 71 % 0 % 1004,7 hPa 0,0 l/m 0,0 km/h (0 Bft) N 360 0 min 13,1 C 15,0 C 0,0 km/h (0 Bft)
12.06.2016 23:05 14,6 C 23,8 C 15,4 C 15,0 C 15,0 C 0,4 C 90 % 71 % 0 % 1004,6 hPa 0,0 l/m 0,0 km/h (0 Bft) NW 315 0 min 13,0 C 15,0 C 0,0 km/h (0 Bft)
12.06.2016 23:10 14,7 C 23,8 C 15,4 C 15,0 C 15,0 C 0,3 C 90 % 71 % 0 % 1004,6 hPa 0,0 l/m 0,0 km/h (0 Bft) NO 45 0 min 13,1 C 15,0 C 0,0 km/h (0 Bft)
12.06.2016 23:15 14,7 C 23,8 C 15,5 C 15,0 C 15,0 C 0,3 C 90 % 71 % 0 % 1004,6 hPa 0,0 l/m 0,0 km/h (0 Bft) S 180 0 min 13,1 C 15,0 C 0,0 km/h (0 Bft)
12.06.2016 23:20 14,7 C 23,8 C 15,5 C 15,0 C 15,0 C 0,3 C 90 % 71 % 0 % 1004,6 hPa 0,0 l/m 0,0 km/h (0 Bft) SO 135 0 min 13,1 C 15,0 C 0,0 km/h (0 Bft)
12.06.2016 23:25 14,6 C 23,8 C 15,5 C 15,0 C 15,0 C 0,4 C 90 % 71 % 0 % 1004,5 hPa 0,0 l/m 0,0 km/h (0 Bft) NW 315 0 min 13,0 C 15,0 C 0,0 km/h (0 Bft)
12.06.2016 23:30 14,7 C 24,0 C 15,5 C 15,0 C 15,0 C 0,3 C 90 % 71 % 0 % 1004,5 hPa 0,0 l/m 0,0 km/h (0 Bft) W-SW 247 0 min 13,1 C 15,0 C 0,0 km/h (0 Bft)
12.06.2016 23:35 14,6 C 24,0 C 15,4 C 15,0 C 15,0 C 0,4 C 90 % 71 % 0 % 1004,5 hPa 0,0 l/m 0,0 km/h (0 Bft) NW 315 0 min 13,0 C 15,0 C 0,0 km/h (0 Bft)
12.06.2016 23:45 14,7 C 24,1 C 15,3 C 14,9 C 14,9 C 0,2 C 90 % 71 % 0 % 1004,4 hPa 0,0 l/m 0,0 km/h (0 Bft) N-NW 337 0 min 13,1 C 14,9 C 0,0 km/h (0 Bft)
12.06.2016 23:50 14,6 C 24,1 C 15,3 C 14,9 C 14,9 C 0,3 C 90 % 71 % 0 % 1004,4 hPa 0,0 l/m 0,0 km/h (0 Bft) W-SW 247 0 min 13,0 C 14,9 C 0,0 km/h (0 Bft)
12.06.2016 23:55 14,5 C 24,1 C 15,2 C 14,8 C 14,8 C 0,3 C 90 % 71 % 0 % 1004,4 hPa 0,0 l/m 0,0 km/h (0 Bft) N-NW 337 0 min 12,9 C 14,8 C 0,0 km/h (0 Bft)
_ Min-Zeit 04:57 09:37 04:57 04:17 04:17 00:02 12:12 12:22 00:02 23:45 - 00:02 - - - 04:27 04:17 00:02
Minimum _ 8,7 C 22,0 C 10,6 C 9,0 C 9,0 C 0,0 C 57 % 64 % 0 % 1004,4 hPa - 0,0 km/h (0 Bft) - - - 6,6 C 9,0 C 0,0 km/h (0 Bft)
_ Max-Zeit 12:12 23:45 16:20 10:32 10:32 10:27 07:02 03:57 07:02 00:02 17:12 10:17 - - 15:54 15:30 10:32 13:45
Maximum _ 22,3 C 24,1 C 22,0 C 29,0 C 29,0 C 8,5 C 91 % 89 % 100 % 1010,9 hPa 5,5 l/m 4,3 km/h
O-NO (1 Bft)
- - 19 min 15,3 C 29,0 C 10,5 km/h
S (2 Bft)
Durchschnitt _ 15,4 C 22,9 C 15,8 C 17,4 C 17,4 C 2,1 C 80 % 80 % 39 % 1008,2 hPa #20,6 l/m 0,8 km/h (0 Bft) O-NO - #8:28 h 11,8 C 17,4 C 1,0 km/h (0 Bft)
2016 www.wetterstation-wechselburg.de